Weather History for Wilmington, OH

Change the Weather History Date:

Friday, December 7, 2012

  Actual Average (KDAY) Record (KDAY)
Temperature  
Mean Temperature 50 °F 34 °F  
Max Temperature 54 °F 41 °F 68 °F (1998)
Min Temperature 46 °F 27 °F -1 °F (1977)
Degree Days  
Heating Degree Days 16 31  
Month to date heating degree days 211  
Since 1 July heating degree days 1322  
Cooling Degree Days 0 0  
Month to date cooling degree days 0  
Year to date cooling degree days 891  
Moisture  
Dew Point 49 °F    
Average Humidity 98    
Maximum Humidity 100    
Minimum Humidity 93    
Precipitation  
Precipitation 0.80 in 0.11 in 0.84 in (1956)
Month to date precipitation 0.72  
Year to date precipitation 38.65  
Snow  
Snow 0.00 in 0.10 in 1.60 in (1950)
Month to date snowfall 0.6  
Since 1 July snowfall 1.6  
Snow Depth -    
Sea Level Pressure  
Sea Level Pressure 29.95 in    
Wind  
Wind Speed 4 mph (SSW)    
Max Wind Speed 15 mph    
Max Gust Speed -    
Visibility 3 miles    
Events Fog , Rain    
T = Trace of Precipitation, MM = Missing Value Source: NWS Daily Summary

Daily Weather History Graph

Daily Weather History Graph

Search for Another Location

Airport:

Trip Planner

Search our weather history database for the weather conditions in past years. The results will help you decide how hot, cold, wet, or windy it might be!

Date:

Astronomy

Dec. 07, 2012 Rise Set
Actual Time 7:42 AM EST 5:11 PM EST
Civil Twilight 7:12 AM EST 5:41 PM EST
Nautical Twilight 6:38 AM EST 6:15 PM EST
Astronomical Twilight 6:06 AM EST 6:47 PM EST
Moon 1:02 AM EST (12/7) 1:06 PM EST (12/7)
Length of Visible Light 10h 29m
Length of Day
9h 29m
Last Quarter, 39% of the Moon is Illuminated
Dec 7
Last Quarter
Dec 13
New
Dec 20
First Quarter
Dec 28
Full
Jan 4
Last Quarter

Hourly Weather History & Observations

Time (EST) Temp. Dew Point Humidity Pressure Visibility Wind Dir Wind Speed Gust Speed Precip Events Conditions
12:54 AM 46.9 °F 46.0 °F 97% 30.01 in 8.0 mi SSW 3.5 mph - 0.01 in   Overcast
1:35 AM 48.2 °F 46.4 °F 93% 29.97 in 1.8 mi WSW 5.8 mph - 0.06 in Rain Heavy Rain
1:46 AM 48.2 °F 46.4 °F 93% 29.97 in 3.0 mi WSW 4.6 mph - 0.10 in Rain Light Rain
1:54 AM 48.0 °F 46.9 °F 96% 30.01 in 3.0 mi SW 4.6 mph - 0.12 in Rain Heavy Rain
2:01 AM 48.2 °F 46.4 °F 93% 29.97 in 2.5 mi SW 5.8 mph - 0.02 in Rain Rain
2:19 AM 48.2 °F 46.4 °F 93% 29.97 in 3.0 mi SW 5.8 mph - 0.06 in Rain Light Rain
2:44 AM 48.2 °F 46.4 °F 93% 29.97 in 2.5 mi SSW 6.9 mph - 0.13 in Rain Heavy Rain
2:46 AM 48.2 °F 46.4 °F 93% 29.97 in 2.5 mi SSW 5.8 mph - 0.13 in Rain Heavy Rain
2:54 AM 48.0 °F 46.9 °F 96% 30.00 in 4.0 mi SSW 4.6 mph - 0.14 in Rain Light Rain
3:16 AM 48.2 °F 46.4 °F 93% 29.97 in 4.0 mi SSW 5.8 mph - 0.01 in   Overcast
3:54 AM 48.0 °F 46.9 °F 96% 30.00 in 5.0 mi SW 6.9 mph - 0.01 in   Overcast
4:54 AM 48.0 °F 48.0 °F 100% 30.00 in 4.0 mi SW 8.1 mph - N/A   Overcast
5:10 AM 48.2 °F 48.2 °F 100% 29.96 in 2.0 mi SW 6.9 mph - N/A   Overcast
5:17 AM 48.2 °F 48.2 °F 100% 29.96 in 1.2 mi SW 6.9 mph - N/A   Overcast
5:37 AM 48.2 °F 48.2 °F 100% 29.97 in 0.8 mi SW 6.9 mph - N/A   Mist
5:54 AM 48.0 °F 48.0 °F 100% 30.01 in 0.8 mi SSW 5.8 mph - 0.00 in   Mist
6:54 AM 48.9 °F 48.9 °F 100% 30.01 in 0.5 mi SSW 4.6 mph - N/A Fog Fog
7:54 AM 48.9 °F 48.9 °F 100% 30.02 in 0.5 mi WSW 3.5 mph - N/A Fog Fog
8:19 AM 48.2 °F 48.2 °F 100% 29.98 in 0.2 mi Calm Calm - 0.00 in Fog , Rain Light Rain
8:54 AM 48.9 °F 48.9 °F 100% 30.02 in 0.2 mi South 3.5 mph - 0.01 in Fog , Rain Light Rain
9:36 AM 48.2 °F 48.2 °F 100% 29.99 in 0.5 mi Calm Calm - 0.01 in Fog , Rain Rain
9:43 AM 48.2 °F 48.2 °F 100% 29.99 in 1.0 mi Calm Calm - 0.02 in Rain Light Rain
9:54 AM 48.9 °F 48.9 °F 100% 30.03 in 1.2 mi Calm Calm - 0.04 in Rain Rain
10:04 AM 48.2 °F 48.2 °F 100% 29.99 in 3.0 mi Calm Calm - 0.01 in Rain Light Rain
10:11 AM 50.0 °F 50.0 °F 100% 29.99 in 2.5 mi Calm Calm - 0.01 in Rain Light Rain
10:21 AM 50.0 °F 50.0 °F 100% 29.99 in 4.0 mi Calm Calm - 0.02 in Rain Light Rain
10:37 AM 50.0 °F 50.0 °F 100% 29.99 in 3.0 mi Calm Calm - 0.03 in Rain Light Rain
10:44 AM 50.0 °F 50.0 °F 100% 29.98 in 2.5 mi Calm Calm - 0.03 in Rain Light Rain
10:51 AM 50.0 °F 50.0 °F 100% 29.98 in 4.0 mi Calm Calm - 0.04 in Rain Light Rain
10:54 AM 50.0 °F 50.0 °F 100% 30.02 in 5.0 mi Calm Calm - 0.04 in Rain Light Rain
10:58 AM 50.0 °F 50.0 °F 100% 29.98 in 6.0 mi Calm Calm - 0.00 in Rain Light Rain
11:10 AM 48.2 °F 48.2 °F 100% 29.98 in 4.0 mi Calm Calm - 0.01 in Rain Rain
11:54 AM 50.0 °F 48.9 °F 96% 29.99 in 4.0 mi Calm Calm - 0.04 in Rain Light Rain
12:54 PM 48.9 °F 46.9 °F 93% 29.97 in 4.0 mi NE 5.8 mph - 0.04 in Rain Light Rain
1:54 PM 48.9 °F 48.0 °F 97% 29.94 in 5.0 mi ENE 5.8 mph - 0.04 in Rain Light Rain
2:54 PM 50.0 °F 48.9 °F 96% 29.91 in 6.0 mi East 4.6 mph - 0.03 in Rain Light Rain
3:43 PM 50.0 °F 48.2 °F 94% 29.88 in 2.5 mi East 5.8 mph - 0.01 in Rain Rain
3:54 PM 50.0 °F 50.0 °F 100% 29.91 in 2.5 mi Calm Calm - 0.02 in Rain Rain
4:24 PM 50.0 °F 50.0 °F 100% 29.88 in 1.8 mi ESE 4.6 mph - 0.04 in Rain Rain
4:47 PM 50.0 °F 50.0 °F 100% 29.88 in 2.0 mi SSE 3.5 mph - 0.07 in Rain Rain
4:54 PM 50.0 °F 50.0 °F 100% 29.92 in 2.5 mi South 3.5 mph - 0.08 in Rain Rain
5:04 PM 50.0 °F 50.0 °F 100% 29.88 in 3.0 mi South 3.5 mph - 0.02 in Rain Rain
5:54 PM 50.0 °F 50.0 °F 100% 29.91 in 4.0 mi SSE 3.5 mph - 0.07 in Rain Light Rain
6:54 PM 50.0 °F 50.0 °F 100% 29.90 in 4.0 mi SE 3.5 mph - 0.10 in Rain Light Rain
7:39 PM 50.0 °F 50.0 °F 100% 29.87 in 3.0 mi SSE 3.5 mph - 0.05 in Rain Rain
8:15 PM 50.0 °F 50.0 °F 100% 29.86 in 4.0 mi SSE 4.6 mph - 0.00 in   Overcast
8:54 PM 51.1 °F 51.1 °F 100% 29.89 in 6.0 mi South 5.8 mph - 0.01 in   Overcast
9:54 PM 52.0 °F 51.1 °F 97% 29.88 in 5.0 mi South 8.1 mph - N/A   Overcast
10:19 PM 51.8 °F 51.8 °F 100% 29.84 in 2.5 mi SSW 8.1 mph - 0.00 in Rain Light Rain
10:51 PM 53.6 °F 53.6 °F 100% 29.84 in 3.0 mi SSW 9.2 mph - 0.00 in   Overcast
10:54 PM 53.1 °F 53.1 °F 100% 29.86 in 3.0 mi SSW 8.1 mph - 0.00 in   Overcast
11:31 PM 53.6 °F 53.6 °F 100% 29.84 in 5.0 mi SW 11.5 mph - N/A   Overcast
11:54 PM 54.0 °F 53.1 °F 97% 29.87 in 6.0 mi SW 15.0 mph - N/A   Overcast